Regional Weather Roundup
Issued by NWS Green Bay, WI

Home | Current Version | Previous Version | Graphics & Text | Print | Product List | Glossary Off
Versions: 1 2 3 4 5 6 7 8 9 10 11 12 13 14 15 16 17 18 19 20 21 22 23 24 25 26 27 28 29 30 31 32 33 34 35 36 37 38 39 40 41 42 43 44 45 46 47 48 49 50

077
ASUS43 KGRB 291900
RWRGRB

NORTH-CENTRAL AND NORTHEAST WISCONSIN REGIONAL WEATHER ROUNDUP
NATIONAL WEATHER SERVICE GREEN BAY WI
200 PM CDT MON MAY 29 2017

WIZ005-009-010>012-018-019-292000-
NORTH CENTRAL WISCONSIN

CITY           SKY/WX    TMP DP  RH WIND       PRES   REMARKS
IRONWOOD       LGT RAIN  56  53  90 W14G22    29.68S
MANITOWISH WTR LGT RAIN  52  52 100 W9G16     29.70R
ARBOR VITAE    NOT AVBL
EAGLE RIVER    NOT AVBL
LAND O LAKES   RAIN      52  50  92 NW7       29.69R
RHINELANDER    PTSUNNY   59  53  80 W15       29.70S
PHILLIPS       PTSUNNY   59  52  75 W8        29.70S
ANTIGO         NOT AVBL
TOMAHAWK       NOT AVBL
MERRILL        CLOUDY    58  52  78 W23       29.73S
$$

WIZ013-073-292000-
NORTHEAST WISCONSIN

CITY           SKY/WX    TMP DP  RH WIND       PRES   REMARKS
IRON MOUNTAIN  PTSUNNY   65  46  50 W12G22    29.63F
MARINETTE      NOT AVBL
$$

WIZ017-030-035>037-045-292000-
CENTRAL WISCONSIN

CITY           SKY/WX    TMP DP  RH WIND       PRES   REMARKS
MEDFORD        NOT AVBL
WAUSAU         PTSUNNY   61  48  62 W22G30    29.73R
MOSINEE        PTSUNNY   57  50  77 W16G24    29.76R
MARSHFIELD     PTSUNNY   60  46  59 W18       29.75S
WISC RAPIDS    PTSUNNY   62  51  67 W10       29.79R
STEVENS POINT  NOT AVBL
WAUPACA        PTSUNNY   62  51  65 W20G26    29.77R
SHAWANO        RAIN      55  50  82 W13       29.74R
CLINTONVILLE   LGT RAIN  57  46  67 W10G22    29.74R
WAUTOMA        MOSUNNY   65  45  48 MISG        N/A
$$

WIZ038-039-048-051-292000-
FOX VALLEY

CITY           SKY/WX    TMP DP  RH WIND       PRES   REMARKS
NWS GREEN BAY  MOSUNNY   66  51  58 SW17G30   29.73R
APPLETON       PTSUNNY   64  45  48 W17G23    29.74R
OSHKOSH        PTSUNNY   64  46  52 W12G22    29.75F
FOND DU LAC    CLOUDY    65  43  44 W12G26    29.77S
$$

WIZ022-050-052-292000-
EAST CENTRAL WISCONSIN

CITY           SKY/WX    TMP DP  RH WIND       PRES   REMARKS
EPHRAIM        MOCLDY   N/A N/A N/A SW10G20   29.67R
WASHINGTON ISL NOT AVBL
STURGEON BAY   MOSUNNY   66  51  58 SW20G26   29.69
MANITOWOC      NOT AVBL
SHEBOYGAN      CLOUDY    65  50  58 W18G24    29.77R
$$

LMZ563-521-522-541>543-292000-
LAKESHORE

STATION/POSITION TIME  TEMP    WIND        PRES    VSBY  WAVE
                       AIR SEA DIR/SP/G                  HT/PER
                 (UTC) (F)     (DEG/KT/KT) (MB)    (MI)  (FT/S)
SHEBOYGAN LKSHOR 1800   64     280/ 14/ 18 1007.3R
KEWAUNEE LKSHORE 1830   64     250/ 16/ 21 1006.1R
NORTHPORT PIER   1840   66     270/  5/ 18 1004.4R
N MID LAKE BUOY  1750   46 41  180/ 16/ 17 1005.3S         1/ 3
CHAMBERS ISLAND  1840   64     180/  8/ 18 1004.1S
MENOMINEE LKSHOR 1830          230/ 12/ 20 1004.1R
$$




USA.gov is the U.S. government's official web portal to all federal, state and local government web resources and services.